When you browse on this site, cookies collect data to enhance your experience and personalize the content and advertising you see.
Visit our Privacy Policy to learn more. By continuing to use the site, you agree to this use of cookies and data.

Stündliche Wetter Bolshie Nivy

Heute, 23 September, Mittwoch

Zeit Temperatur Niederschläge Wind Luftdruck Luftfeuchtigkeit
00:00 +10°C° 0 mm 2 m/S 739 mmHg 93%
01:00 +9°C° 0 mm 2 m/S 740 mmHg 95%
02:00 +9°C° 0 mm 2 m/S 740 mmHg 96%
03:00 +9°C° 0 mm 2 m/S 740 mmHg 96%
04:00 +8°C° 0 mm 2 m/S 740 mmHg 96%
05:00 +9°C° 0 mm 1 m/S 740 mmHg 96%
06:00 +10°C° 0 mm 1 m/S 740 mmHg 92%
07:00 +12°C° 0 mm 2 m/S 741 mmHg 88%
08:00 +13°C° 0 mm 2 m/S 741 mmHg 84%
09:00 +15°C° 0 mm 2 m/S 741 mmHg 78%
10:00 +17°C° 0 mm 2 m/S 741 mmHg 71%
11:00 +18°C° 0 mm 2 m/S 740 mmHg 64%
12:00 +19°C° 0 mm 2 m/S 740 mmHg 63%
13:00 +20°C° 0 mm 2 m/S 741 mmHg 61%
14:00 +20°C° 0 mm 2 m/S 741 mmHg 60%
15:00 +19°C° 0 mm 2 m/S 740 mmHg 67%
16:00 +18°C° 0 mm 2 m/S 740 mmHg 74%
17:00 +17°C° 0 mm 2 m/S 740 mmHg 81%
18:00 +16°C° 0 mm 2 m/S 740 mmHg 85%
19:00 +15°C° 0 mm 2 m/S 740 mmHg 90%
20:00 +14°C° 0 mm 2 m/S 740 mmHg 94%
21:00 +13°C° 0 mm 2 m/S 740 mmHg 95%
22:00 +13°C° 0 mm 2 m/S 740 mmHg 95%
23:00 +13°C° 0 mm 2 m/S 740 mmHg 96%

Morgen, 24 September, Donnerstag

Zeit Temperatur Niederschläge Wind Luftdruck Luftfeuchtigkeit
00:00 +13°C° 0 mm 2 m/S 740 mmHg 96%
01:00 +12°C° 0 mm 2 m/S 740 mmHg 95%
02:00 +12°C° 0 mm 2 m/S 741 mmHg 95%
03:00 +10°C° 0 mm 2 m/S 741 mmHg 94%
04:00 +10°C° 0 mm 2 m/S 741 mmHg 93%
05:00 +9°C° 0 mm 2 m/S 740 mmHg 92%
06:00 +12°C° 0 mm 2 m/S 741 mmHg 86%
07:00 +12°C° 0 mm 3 m/S 741 mmHg 80%
08:00 +13°C° 0 mm 3 m/S 741 mmHg 73%
09:00 +14°C° 0 mm 3 m/S 741 mmHg 67%
10:00 +17°C° 0 mm 3 m/S 741 mmHg 61%
11:00 +19°C° 0 mm 3 m/S 741 mmHg 55%
12:00 +19°C° 0 mm 3 m/S 742 mmHg 52%
13:00 +20°C° 0 mm 3 m/S 742 mmHg 50%
14:00 +20°C° 0 mm 3 m/S 742 mmHg 47%
15:00 +19°C° 0 mm 3 m/S 741 mmHg 55%
16:00 +17°C° 0 mm 2 m/S 741 mmHg 63%
17:00 +16°C° 0 mm 2 m/S 741 mmHg 71%
18:00 +15°C° 0 mm 2 m/S 741 mmHg 75%
19:00 +14°C° 0 mm 2 m/S 741 mmHg 79%
20:00 +13°C° 0 mm 2 m/S 741 mmHg 84%
21:00 +13°C° 0 mm 2 m/S 741 mmHg 83%
22:00 +12°C° 0 mm 2 m/S 742 mmHg 83%
23:00 +12°C° 0 mm 2 m/S 742 mmHg 83%

übermorgen, 25 September, Freitag

Zeit Temperatur Niederschläge Wind Luftdruck Luftfeuchtigkeit
00:00 +12°C° 0 mm 2 m/S 742 mmHg 84%
01:00 +10°C° 0 mm 2 m/S 742 mmHg 85%
02:00 +10°C° 0 mm 2 m/S 742 mmHg 86%
03:00 +10°C° 0 mm 2 m/S 742 mmHg 87%
04:00 +9°C° 0 mm 2 m/S 742 mmHg 88%
05:00 +9°C° 0 mm 2 m/S 742 mmHg 90%
06:00 +10°C° 0 mm 2 m/S 742 mmHg 84%
07:00 +11°C° 0 mm 3 m/S 742 mmHg 79%
08:00 +13°C° 0 mm 3 m/S 742 mmHg 74%
09:00 +14°C° 0 mm 3 m/S 742 mmHg 69%
10:00 +17°C° 0 mm 3 m/S 742 mmHg 64%
11:00 +19°C° 0 mm 3 m/S 742 mmHg 59%
12:00 +19°C° 0 mm 3 m/S 742 mmHg 58%
13:00 +20°C° 0 mm 3 m/S 742 mmHg 57%
14:00 +20°C° 0 mm 3 m/S 742 mmHg 56%
15:00 +19°C° 0 mm 3 m/S 742 mmHg 62%
16:00 +18°C° 0 mm 3 m/S 741 mmHg 68%
17:00 +17°C° 0 mm 3 m/S 741 mmHg 75%
18:00 +16°C° 0 mm 3 m/S 741 mmHg 77%
19:00 +14°C° 0 mm 3 m/S 741 mmHg 79%
20:00 +13°C° 0 mm 3 m/S 741 mmHg 81%
21:00 +13°C° 0 mm 3 m/S 741 mmHg 84%
22:00 +12°C° 0 mm 3 m/S 742 mmHg 86%
23:00 +13°C° 0 mm 2 m/S 742 mmHg 89%

26 September, Samstag

Zeit Temperatur Niederschläge Wind Luftdruck Luftfeuchtigkeit
00:00 +12°C° 0 mm 2 m/S 742 mmHg 90%
01:00 +12°C° 0 mm 2 m/S 742 mmHg 91%
02:00 +12°C° 0 mm 2 m/S 742 mmHg 92%
03:00 +12°C° 0 mm 2 m/S 742 mmHg 91%
04:00 +12°C° 0 mm 2 m/S 742 mmHg 90%
05:00 +10°C° 0 mm 3 m/S 742 mmHg 89%
06:00 +12°C° 0 mm 3 m/S 742 mmHg 83%
07:00 +13°C° 0 mm 3 m/S 742 mmHg 78%
08:00 +14°C° 0 mm 3 m/S 742 mmHg 73%
09:00 +15°C° 0 mm 4 m/S 743 mmHg 68%
10:00 +18°C° 0 mm 4 m/S 743 mmHg 63%
11:00 +20°C° 0 mm 4 m/S 743 mmHg 59%
12:00 +20°C° 0 mm 4 m/S 743 mmHg 57%
13:00 +21°C° 0 mm 4 m/S 743 mmHg 56%
14:00 +21°C° 0 mm 4 m/S 743 mmHg 55%
15:00 +20°C° 0 mm 4 m/S 743 mmHg 61%
16:00 +18°C° 0 mm 3 m/S 743 mmHg 67%
17:00 +17°C° 0 mm 3 m/S 743 mmHg 73%
18:00 +16°C° 0 mm 3 m/S 743 mmHg 74%
19:00 +14°C° 0 mm 3 m/S 743 mmHg 75%
20:00 +14°C° 0 mm 4 m/S 744 mmHg 76%
21:00 +13°C° 0 mm 3 m/S 744 mmHg 76%
22:00 +12°C° 0 mm 3 m/S 744 mmHg 76%
23:00 +12°C° 0 mm 3 m/S 744 mmHg 76%

27 September, Sonntag

Zeit Temperatur Niederschläge Wind Luftdruck Luftfeuchtigkeit
00:00 +11°C° 0 mm 3 m/S 744 mmHg 76%
01:00 +11°C° 0 mm 3 m/S 744 mmHg 77%
02:00 +10°C° 0 mm 3 m/S 744 mmHg 77%
03:00 +10°C° 0 mm 3 m/S 744 mmHg 78%
04:00 +10°C° 0 mm 3 m/S 744 mmHg 79%
05:00 +10°C° 0 mm 4 m/S 744 mmHg 79%
06:00 +11°C° 0 mm 4 m/S 744 mmHg 77%
07:00 +12°C° 0 mm 4 m/S 744 mmHg 75%
08:00 +12°C° 0 mm 4 m/S 744 mmHg 73%
09:00 +14°C° 0 mm 4 m/S 744 mmHg 69%
10:00 +17°C° 0 mm 4 m/S 744 mmHg 65%
11:00 +18°C° 0 mm 4 m/S 744 mmHg 61%
12:00 +19°C° 0 mm 4 m/S 744 mmHg 59%
13:00 +20°C° 0 mm 5 m/S 744 mmHg 56%
14:00 +20°C° 0 mm 5 m/S 744 mmHg 54%
15:00 +19°C° 0 mm 4 m/S 744 mmHg 58%
16:00 +18°C° 0 mm 4 m/S 744 mmHg 62%
17:00 +17°C° 0 mm 4 m/S 744 mmHg 65%
18:00 +15°C° 0 mm 4 m/S 744 mmHg 65%
19:00 +14°C° 0 mm 4 m/S 744 mmHg 64%
20:00 +13°C° 0 mm 4 m/S 744 mmHg 63%
21:00 +12°C° 0 mm 4 m/S 744 mmHg 64%
22:00 +12°C° 0 mm 4 m/S 744 mmHg 64%
23:00 +11°C° 0 mm 4 m/S 744 mmHg 65%

28 September, Montag

Zeit Temperatur Niederschläge Wind Luftdruck Luftfeuchtigkeit
00:00 +11°C° 0 mm 4 m/S 744 mmHg 66%
01:00 +11°C° 0 mm 4 m/S 744 mmHg 66%
02:00 +11°C° 0 mm 4 m/S 744 mmHg 67%
03:00 +10°C° 0 mm 4 m/S 744 mmHg 67%
04:00 +10°C° 0 mm 4 m/S 744 mmHg 67%
05:00 +10°C° 0 mm 4 m/S 743 mmHg 66%
06:00 +11°C° 0 mm 4 m/S 743 mmHg 65%
07:00 +11°C° 0 mm 4 m/S 743 mmHg 64%
08:00 +11°C° 0 mm 4 m/S 743 mmHg 63%
09:00 +12°C° 0 mm 4 m/S 743 mmHg 61%
10:00 +13°C° 0 mm 4 m/S 743 mmHg 60%
11:00 +13°C° 0 mm 4 m/S 743 mmHg 58%
12:00 +12°C° 0.5 mm 4 m/S 743 mmHg 67%
13:00 +11°C° 0.5 mm 4 m/S 743 mmHg 76%
14:00 +10°C° 0.5 mm 4 m/S 743 mmHg 85%
15:00 +10°C° 0.3 mm 3 m/S 743 mmHg 84%
16:00 +10°C° 0.3 mm 3 m/S 742 mmHg 83%
17:00 +10°C° 0.3 mm 3 m/S 742 mmHg 83%
18:00 +10°C° 0 mm 3 m/S 742 mmHg 82%
19:00 +10°C° 0 mm 3 m/S 742 mmHg 81%
20:00 +10°C° 0 mm 4 m/S 742 mmHg 80%
21:00 +10°C° 0 mm 4 m/S 742 mmHg 82%
22:00 +10°C° 0 mm 3 m/S 741 mmHg 85%
23:00 +10°C° 0 mm 3 m/S 741 mmHg 88%
Mehr zeigen